Iranshahr, Iran

6:41 PM +0430 on September 19, 2017 (GMT +0430)
Iran Shahr

Weather History for OIZI - January, 2013

Change the Weather History Date:

Friday, January 25, 2013

  Actual Average Record
Temperature  
Mean Temperature 64 °F -  
Max Temperature 76 °F 74 °F - ()
Min Temperature 51 °F 49 °F - ()
Degree Days  
Heating Degree Days 2    
Growing Degree Days 14 (Base 50)    
Moisture  
Dew Point 31 °F    
Average Humidity 28    
Maximum Humidity 44    
Minimum Humidity 10    
Precipitation  
Precipitation 0.00 in 0.03 in - ()
Sea Level Pressure  
Sea Level Pressure 30.15 in    
Wind  
Wind Speed 4 mph ()    
Max Wind Speed 7 mph    
Max Gust Speed -    
Visibility 8.2 miles    
Events      
T = Trace of Precipitation, MM = Missing Value Source: Averaged Metar Reports

Daily Weather History Graph

Daily Weather History Graph

Search for Another Location

Airport or City:

Trip Planner

Search our weather history database for the weather conditions in past years. The results will help you decide how hot, cold, wet, or windy it might be!

Date:

Astronomy

Jan. 25, 2013 Rise Set
Actual Time 6:16 AM +0330 5:03 PM +0330
Civil Twilight 5:51 AM +0330 5:27 PM +0330
Nautical Twilight 5:23 AM +0330 5:56 PM +0330
Astronomical Twilight 4:55 AM +0330 6:23 PM +0330
Moon 3:38 PM +0330 (1/25) 4:36 AM +0330 (1/25)
Length of Visible Light 11h 36m
Length of Day
10h 47m
Waxing Gibbous, 97% of the Moon is Illuminated
Jan 25
Waxing Gibbous
Jan 27
Full
Feb 3
Last Quarter
Feb 10
New
Feb 18
First Quarter

Hourly Weather History & Observations

Time (+0330) Temp. Dew Point Humidity Pressure Visibility Wind Dir Wind Speed Gust Speed Precip Events Conditions
12:30 AM 55.4 °F 24.8 °F 31% 30.15 in - NNW 4.6 mph - N/A   Clear
3:30 AM 55 °F 28 °F 23% 30.13 in 6 mi NNW 6.7 mph - -  
3:30 AM 55.4 °F 28.4 °F 36% 30.15 in - NNW 6.9 mph - N/A   Clear
5:30 AM 51.8 °F 30.2 °F 44% 30.18 in - North 6.9 mph - N/A   Clear
6:30 AM 51.8 °F 30.2 °F 44% 30.18 in - North 4.6 mph - N/A   Clear
7:30 AM 55.4 °F 32.0 °F 41% 30.18 in - NNW 4.6 mph - N/A   Clear
8:30 AM 59.0 °F 33.8 °F 39% 30.18 in - North 4.6 mph - N/A   Clear
9:30 AM 65 °F 35 °F 22% 30.19 in 9 mi NNE 4.5 mph - -  
9:30 AM 66.2 °F 35.6 °F 32% 30.21 in - NNE 4.6 mph - N/A   Clear
10:30 AM 69.8 °F 37.4 °F 31% 30.21 in - NE 4.6 mph - N/A   Clear
11:30 AM 71.6 °F 37.4 °F 29% 30.18 in - West 4.6 mph - N/A   Clear
12:30 PM 73.4 °F 32.0 °F 22% 30.15 in - South 4.6 mph - N/A   Clear
1:30 PM 75.2 °F 30.2 °F 19% 30.12 in - SSE 4.6 mph - N/A   Clear
2:30 PM 75.2 °F 32.0 °F 21% 30.12 in - SE 4.6 mph - N/A   Clear
3:30 PM 76 °F 31 °F 10% 30.07 in 12 mi Calm Calm - -   Clear
3:30 PM 75.2 °F 30.2 °F 19% 30.09 in - Calm Calm - N/A   Clear
4:30 PM 73.4 °F 30.2 °F 20% 30.09 in - West 4.6 mph - N/A   Clear
5:30 PM 71.6 °F 32.0 °F 23% 30.12 in - Calm Calm - N/A   Clear
6:30 PM 68.0 °F 30.2 °F 24% 30.12 in - Calm Calm - N/A   Clear
7:30 PM 66.2 °F 30.2 °F 26% 30.15 in - WNW 4.6 mph - N/A   Clear
8:30 PM 62.6 °F 30.2 °F 30% 30.15 in - NW 4.6 mph - N/A   Clear
9:30 PM 61 °F 30 °F 20% 30.13 in 6 mi NNE 4.5 mph - -  
9:30 PM 60.8 °F 30.2 °F 31% 30.15 in - NNE 4.6 mph - N/A   Clear
10:30 PM 57.2 °F 28.4 °F 33% 30.18 in - Calm Calm - N/A   Clear
11:30 PM 57.2 °F 28.4 °F 33% 30.18 in - NNW 4.6 mph - N/A   Clear